Dewpoint
55 56 55 55 55 55 56 56 56 56 57 57 57 57 58 58 58 59 59 59 58 58 58 57 57 57 58 58 58 58 57 55 53 51 51 46 54 56 64 62 65 66 66 55 41 41 41 40 46 52 50 52 59 62 63 64 61 63 60 57 55 57 56 57 59 60 61 61 63 64 66 64 63 66 68 68 66 66 65 62 61 61 61 62 63 65 65 64
55 56 56 55 55 55 56 56 56 56 56 57 57 57 58 58 58 58 58 58 58 58 58 57 57 58 58 58 58 58 57 54 52 51 49 53 58 59 60 66 72 68 63 50 39 38 37 39 45 50 49 49 53 58 61 57 61 59 59 57 53 58 57 61 61 61 62 63 65 66 66 65 65 67 68 64 63 64 63 63 60 60 61 62 63 64 64 63
55 55 55 55 55 55 56 56 56 56 56 56 57 57 57 58 58 58 59 59 58 58 58 57 57 57 58 58 59 59 56 53 52 50 50 64 62 62 65 68 70 66 53 42 40 36 41 44 49 50 49 49 53 54 56 53 59 58 57 57 56 59 60 64 63 61 62 65 65 65 65 67 65 65 66 65 65 63 62 60 59 59 59 61 62 63 62 63
55 55 55 55 55 55 55 56 55 56 56 56 57 57 57 57 58 58 58 58 58 58 58 58 58 58 58 59 59 57 55 52 48 50 51 69 67 67 68 68 69 65 49 38 37 35 37 47 50 50 48 49 52 55 54 52 50 51 52 51 52 57 59 62 66 62 64 66 65 64 64 65 65 64 66 64 62 63 62 62 60 59 59 60 61 61 61 62
55 55 55 55 55 55 55 55 55 56 56 56 56 56 57 57 57 58 58 57 58 58 58 58 59 59 59 60 59 56 50 41 47 49 52 72 72 69 68 69 70 57 40 39 38 35 39 37 47 49 48 50 53 54 53 51 51 49 50 51 54 59 57 62 65 63 62 65 65 65 64 64 65 65 66 66 61 59 61 61 60 60 60 60 60 60 61 62
55 55 54 54 55 55 55 55 56 56 56 56 56 56 57 57 57 57 57 57 58 58 59 59 59 59 59 59 57 55 49 28 37 46 67 70 70 67 67 68 68 53 43 37 32 34 34 35 40 42 47 50 52 53 50 50 50 47 47 51 51 57 59 62 63 61 62 63 64 64 66 67 64 62 64 65 64 66 65 61 61 60 60 60 60 60 60 61
54 54 54 54 54 55 55 55 55 56 56 56 56 56 56 56 57 57 57 57 57 58 59 60 60 60 59 59 57 52 46 44 46 44 69 71 70 70 71 68 67 47 42 37 34 30 32 35 39 40 47 51 51 50 50 49 47 47 45 47 51 55 59 62 59 61 63 65 63 65 67 65 63 62 65 64 63 66 68 60 60 60 59 60 59 59 59 60
54 54 54 54 54 54 55 55 55 55 55 56 56 56 56 56 56 56 57 57 57 58 59 60 60 60 60 54 50 44 47 45 46 53 72 71 68 68 67 63 61 50 42 35 32 29 32 33 36 40 43 50 49 49 49 47 47 45 44 45 53 54 61 60 59 61 63 63 64 64 63 64 64 66 64 65 65 66 66 62 60 59 59 59 59 59 58 59
53 54 54 54 54 54 54 55 55 55 55 56 56 56 55 56 56 56 57 57 57 58 59 61 61 60 59 54 42 41 39 44 47 62 69 68 68 65 59 56 55 49 45 40 33 29 31 34 37 40 44 48 50 47 47 45 42 42 43 42 50 55 60 58 60 60 62 63 63 62 63 65 66 65 64 64 67 65 67 60 59 59 59 59 59 59 58 58
53 54 54 54 54 54 54 55 55 55 55 56 55 55 55 55 56 56 56 56 57 58 60 60 60 59 58 52 46 41 38 34 55 65 64 67 68 62 56 54 53 47 42 42 37 30 30 36 40 44 44 46 46 45 45 42 38 37 34 30 37 54 58 58 58 59 60 62 63 62 62 63 64 64 61 62 63 65 67 60 59 59 58 59 59 59 59 58
53 54 54 54 53 54 54 54 55 55 55 55 55 55 55 55 55 56 56 56 56 58 60 61 60 57 49 48 41 40 45 33 55 62 61 66 63 59 57 55 53 45 41 40 37 33 31 33 39 40 43 44 44 41 41 40 36 30 28 28 27 33 57 57 57 58 59 62 62 62 61 62 62 64 61 61 63 64 65 63 59 58 58 58 58 59 59 58
53 53 53 53 54 54 54 55 55 55 55 55 55 55 55 55 55 55 56 56 56 57 61 59 60 55 51 45 41 36 42 33 25 49 61 63 59 57 56 56 52 43 39 36 37 35 33 34 38 40 41 41 42 41 40 35 34 32 28 24 24 29 54 57 56 57 60 60 61 61 60 60 61 60 60 60 63 63 63 62 59 58 58 57 58 59 60 59
53 53 53 53 54 53 54 55 55 55 55 54 54 54 54 54 55 55 55 56 57 58 61 60 60 56 51 45 45 44 44 43 34 31 48 50 49 56 55 55 50 42 38 35 33 34 36 37 40 40 40 38 38 38 36 38 33 32 30 22 20 22 42 55 57 58 59 60 59 58 54 57 60 60 59 60 62 62 61 60 62 58 58 57 58 59 59 59
53 53 53 53 53 54 54 55 55 55 54 54 54 54 54 54 54 55 56 57 58 58 59 60 58 52 50 47 48 47 40 45 40 30 27 36 28 42 51 52 48 41 37 34 33 34 35 37 36 35 36 36 37 40 38 36 34 30 29 25 20 22 25 56 57 57 56 59 58 55 52 55 58 59 59 60 61 60 59 59 59 58 58 57 58 59 59 59
53 53 53 53 53 54 54 54 54 54 54 54 53 53 53 53 54 55 57 57 58 59 61 61 58 51 50 49 50 51 64 37 33 30 27 24 26 34 39 44 42 39 35 34 34 35 34 36 40 42 40 41 39 36 34 32 30 30 25 20 20 21 23 53 56 55 54 57 57 54 52 53 56 57 58 59 60 58 58 58 58 58 58 57 58 59 59 59
53 53 53 53 53 54 54 54 53 54 54 53 52 53 54 54 56 56 57 57 57 61 61 55 56 51 49 46 45 51 35 30 30 31 29 25 21 18 33 38 38 35 34 33 34 35 38 41 42 43 41 39 37 36 32 31 30 28 25 23 20 22 21 26 55 54 55 57 58 54 50 54 55 57 58 59 58 57 57 58 58 58 58 57 58 58 59 59
53 53 53 53 53 54 54 53 53 54 53 52 52 53 54 55 56 56 57 59 57 58 51 49 53 52 45 43 49 39 28 29 27 23 24 22 18 18 22 36 38 37 35 38 37 38 40 43 44 41 39 36 35 35 33 31 30 29 24 23 21 20 21 22 39 55 55 57 56 56 51 52 54 56 57 59 58 56 56 56 57 57 58 57 58 58 59 59
53 53 53 53 54 54 54 53 53 53 52 52 52 52 50 55 56 59 60 59 55 53 50 51 52 49 42 50 38 27 23 21 21 22 26 21 18 22 21 29 34 36 41 41 43 41 44 43 42 37 35 35 34 32 31 29 29 28 29 25 21 20 20 21 23 48 56 56 54 55 51 51 53 55 57 58 57 56 56 57 57 57 57 57 58 58 59 59
53 53 53 53 53 54 54 54 53 52 52 52 52 52 54 53 53 49 48 52 51 50 44 49 49 34 16 24 39 32 21 18 24 22 20 21 26 23 22 26 33 34 37 38 38 39 43 41 39 39 35 33 32 31 30 29 28 26 26 23 21 17 17 18 23 52 55 54 52 52 50 52 53 55 57 57 57 56 56 57 57 57 57 57 58 58 58 59
52 53 53 53 53 53 54 53 52 51 51 50 48 47 35 26 24 36 39 47 46 36 41 41 50 46 43 36 13 16 19 20 16 18 23 24 20 21 26 21 31 34 35 35 38 39 40 39 36 35 36 33 32 32 31 31 30 29 29 27 23 18 16 13 14 50 54 52 51 51 50 52 53 54 56 56 57 57 56 57 58 57 58 58 57 57 57 58
53 53 53 53 53 53 53 53 52 51 51 50 49 41 25 27 24 22 25 25 26 31 32 31 37 41 39 22 13 14 11 11 18 18 21 36 18 15 16 20 28 36 33 34 37 42 38 37 36 35 34 33 31 31 31 30 29 29 28 26 23 20 17 17 16 46 53 50 50 51 50 51 53 53 56 56 57 56 56 56 57 57 58 58 58 57 58 58
53 53 53 53 53 53 53 52 51 51 51 49 49 36 36 26 26 26 26 23 26 27 26 25 24 23 22 23 13 16 14 13 13 17 26 24 17 15 20 24 28 30 34 33 35 36 36 34 34 34 34 33 32 32 30 29 29 28 27 25 21 19 17 16 15 25 51 48 48 49 49 51 52 53 56 56 56 57 57 56 57 57 58 58 58 57 58 58
53 53 53 53 53 52 52 51 51 50 49 47 38 36 32 27 30 31 28 27 26 27 26 25 24 20 14 17 14 13 11 13 11 20 22 27 20 21 24 25 28 30 32 31 30 32 32 30 32 32 32 32 31 31 30 29 28 28 26 23 19 18 15 13 16 13 23 47 47 49 48 50 52 54 55 56 56 58 57 57 58 59 58 58 58 58 58 58
53 53 53 53 53 52 52 50 50 50 46 42 40 38 37 32 30 27 25 25 24 25 26 25 24 15 16 14 14 10 8 13 15 21 36 20 20 24 25 28 28 28 27 30 30 29 29 29 31 31 30 30 30 30 30 29 26 22 23 21 19 16 14 13 13 13 12 16 47 48 48 51 51 52 53 55 56 58 58 58 58 59 59 60 60 59 59 58
53 53 53 53 52 52 50 50 46 41 44 43 40 36 30 39 36 28 26 27 27 25 29 28 26 18 17 19 20 13 15 11 10 17 29 17 21 18 19 21 22 26 28 26 30 29 28 29 28 29 29 28 28 28 28 27 24 21 17 17 17 16 15 14 14 12 10 16 47 47 47 47 49 51 52 54 54 55 58 58 58 59 60 60 59 59 60 59
53 53 53 53 52 51 50 44 43 45 44 39 36 35 32 36 34 34 30 26 21 26 22 19 17 15 21 15 16 15 11 11 14 20 29 21 35 18 22 16 25 24 27 29 27 26 27 27 26 25 28 28 27 26 26 24 21 19 18 16 15 15 14 14 13 15 15 28 40 46 44 44 48 49 51 53 53 54 56 57 58 59 59 60 60 60 60 59
53 53 53 52 52 50 44 40 46 45 40 38 40 40 35 33 43 35 34 27 23 23 21 17 12 12 17 15 14 12 8 8 13 21 19 33 21 29 15 15 16 21 27 22 27 22 26 24 24 23 23 27 27 25 25 23 20 18 19 17 15 15 14 14 13 11 18 26 46 55 45 45 46 48 51 52 52 53 54 56 58 58 59 60 60 60 60 59
53 53 52 51 51 50 48 48 46 43 41 40 42 42 39 37 36 34 33 24 22 21 15 13 19 18 17 15 14 9 11 11 10 14 21 20 25 21 17 15 12 11 14 17 20 17 21 14 23 22 24 19 22 25 25 24 21 21 21 19 18 17 16 15 14 12 13 11 15 42 52 45 45 47 50 51 51 51 52 54 57 58 59 59 60 60 60 60
53 53 52 51 50 50 50 48 47 45 44 44 43 43 39 36 32 28 29 25 20 17 18 15 18 20 15 16 15 12 13 12 8 16 22 23 23 19 16 16 17 14 16 16 13 13 16 19 16 15 16 16 19 21 24 23 21 21 21 21 20 19 19 18 15 13 21 12 16 33 41 31 35 46 48 50 50 50 51 53 56 58 58 59 59 60 60 60
53 52 52 51 49 48 50 49 47 46 45 45 43 43 39 34 32 32 27 20 19 13 15 17 14 14 15 13 11 16 12 12 12 17 19 18 18 17 19 19 15 14 11 12 11 11 11 26 22 22 19 20 21 20 21 22 22 23 21 20 19 18 21 28 22 22 20 12 19 14 15 14 10 40 47 48 49 50 50 52 55 58 58 59 59 59 59 59
52 51 51 51 48 47 46 41 43 46 45 43 42 39 35 35 34 28 22 16 21 16 17 17 14 17 13 11 7 12 12 14 12 12 3 6 8 16 17 17 17 14 16 14 9 10 14 13 11 14 22 19 19 17 21 21 21 20 20 19 19 20 23 24 26 29 12 18 29 17 10 10 10 23 47 49 50 50 51 51 52 57 58 59 59 59 59 59
51 50 51 50 50 49 46 39 39 40 40 41 42 35 33 29 30 28 22 20 17 15 12 10 11 11 9 9 9 10 7 8 10 7 6 10 18 18 18 18 20 13 21 16 13 15 14 13 12 9 25 16 16 19 20 20 20 19 19 21 19 23 17 17 21 14 13 14 23 16 11 20 14 26 46 48 49 50 51 51 52 55 58 59 59 59 59 59
50 49 49 50 51 50 49 46 45 44 43 43 39 34 32 31 20 19 19 12 18 15 11 22 11 11 9 7 10 16 10 5 8 11 10 7 19 19 18 17 17 16 15 19 16 14 15 17 14 12 14 19 14 13 16 18 18 16 20 23 19 17 16 14 23 21 18 17 22 14 15 15 25 17 36 47 48 49 50 51 51 53 57 59 59 59 59 59
50 50 50 51 51 49 50 51 48 46 44 44 34 34 33 22 23 26 15 15 12 15 15 10 10 11 10 5 12 11 8 8 8 8 7 15 19 19 18 16 16 16 17 19 12 14 12 13 16 11 11 13 10 9 10 14 18 19 18 17 21 21 19 16 18 12 11 13 16 18 14 21 8 21 21 45 48 48 49 50 50 52 55 58 59 59 59 58
49 49 50 50 51 51 50 50 48 48 45 39 31 32 25 20 24 16 17 16 15 13 12 12 11 11 7 7 14 12 13 8 6 15 18 18 18 17 17 16 16 16 19 18 20 24 14 12 15 13 13 13 11 13 9 13 17 18 18 21 19 21 27 17 24 20 23 19 16 21 17 21 12 27 28 38 47 48 48 48 50 51 54 57 58 58 58 58
49 50 51 50 52 51 51 50 49 46 43 31 33 27 16 22 19 16 19 19 17 14 13 11 12 9 9 10 16 11 12 12 10 11 18 17 18 17 16 15 15 15 15 16 19 13 18 14 14 12 12 13 16 14 7 16 18 21 18 20 19 22 17 23 33 28 28 21 15 30 17 18 19 14 11 17 34 46 47 47 48 50 55 57 57 58 58 58
49 50 49 50 50 49 49 48 46 45 37 32 32 25 23 21 16 16 27 12 12 13 11 11 11 11 10 10 11 10 11 11 10 11 14 17 18 17 18 16 16 15 15 18 19 14 13 11 12 11 12 17 17 13 11 19 17 17 18 17 19 21 21 21 15 24 18 15 20 21 18 20 14 17 25 16 24 40 46 47 47 49 55 56 56 57 57 57
49 50 53 52 51 44 49 47 42 37 33 32 34 36 18 15 17 15 14 12 13 12 11 12 16 12 11 11 11 12 12 10 10 11 13 18 16 18 17 18 18 17 17 17 17 17 16 10 12 19 19 17 14 14 15 19 18 15 14 17 18 23 18 26 20 13 13 18 19 20 20 25 20 18 20 12 12 17 41 46 46 48 53 56 56 57 57 57
50 50 46 33 33 34 38 40 37 35 34 33 26 31 28 16 19 16 17 15 17 15 10 11 15 12 13 12 14 12 12 10 11 12 15 16 18 18 17 18 17 17 20 23 22 24 20 11 13 17 18 15 14 16 17 17 17 16 14 12 16 21 26 21 22 25 21 20 22 19 25 21 23 15 14 11 11 11 22 42 46 47 52 55 56 56 57 57
48 45 42 39 32 37 41 43 37 36 34 26 27 21 22 17 20 20 19 19 13 13 12 14 13 12 12 12 12 12 13 12 13 15 16 17 17 20 19 19 17 17 17 24 22 23 24 25 17 17 18 14 15 19 17 17 15 14 13 12 22 21 20 21 23 23 20 23 20 22 19 28 28 32 26 27 30 27 19 27 45 47 51 54 55 56 56 57
50 45 43 38 32 40 34 34 31 33 32 25 21 19 20 20 21 20 18 17 16 17 15 14 14 13 15 12 12 14 14 12 15 16 17 18 18 19 20 20 20 18 18 21 23 23 25 25 18 19 18 16 16 21 20 19 17 15 15 16 22 22 21 21 21 25 23 21 20 18 18 30 30 37 40 44 46 46 45 36 40 46 50 53 55 56 56 56
47 36 27 33 38 33 32 31 32 36 23 21 17 19 25 28 20 19 17 16 15 15 17 17 17 13 14 13 16 14 15 16 16 18 20 19 20 20 21 21 21 20 20 21 21 28 28 31 26 21 21 18 18 20 22 20 24 19 22 21 18 18 20 24 22 24 24 23 26 24 21 26 32 32 30 40 48 48 47 37 42 44 49 53 54 55 56 56
44 42 44 46 41 33 32 30 40 33 24 20 20 19 17 16 16 19 16 15 14 16 17 19 21 20 21 17 16 17 17 20 19 17 20 20 20 21 22 21 21 21 22 24 24 22 34 25 18 17 21 18 13 18 27 23 22 21 20 20 16 15 17 18 20 25 26 26 25 25 26 25 29 31 29 34 49 49 50 47 39 46 48 51 53 54 55 55
45 46 45 45 37 33 25 24 26 25 29 20 18 16 17 15 17 18 18 19 17 15 17 19 22 22 23 24 21 20 21 21 24 21 22 26 22 25 24 23 21 20 22 25 26 22 20 27 20 18 12 7 7 20 26 26 21 19 18 18 15 15 14 15 24 31 29 29 25 27 21 27 29 30 28 42 49 50 51 54 51 48 50 51 53 54 55 55
47 47 47 45 38 28 25 26 26 25 25 23 20 18 17 17 18 19 19 17 19 21 23 20 23 25 25 25 24 24 25 23 28 27 24 27 25 27 26 24 23 22 28 32 35 28 23 28 24 17 14 8 5 13 22 19 17 15 15 13 13 12 11 13 18 24 24 32 29 26 26 30 28 27 27 41 50 51 53 55 57 53 53 53 53 54 55 55
43 36 33 31 32 28 28 31 26 26 28 30 26 23 20 22 19 20 20 20 21 23 23 25 24 26 25 25 25 25 25 26 26 29 30 29 30 28 28 26 25 27 35 36 36 28 29 29 26 26 23 20 21 25 24 22 16 11 11 11 12 11 11 13 24 26 22 26 24 26 35 28 24 24 26 48 50 53 53 54 57 58 55 56 55 57 56 58
45 33 34 34 37 27 26 26 27 28 29 32 27 26 23 23 24 23 25 27 25 24 25 25 23 24 28 27 29 27 29 26 29 28 30 29 34 30 31 28 28 35 35 34 37 29 30 23 26 27 26 23 21 21 17 21 13 12 11 10 11 11 12 12 15 17 28 22 21 35 36 25 23 25 36 50 52 53 55 55 54 59 60 60 61 63 67 64
36 40 41 41 33 27 28 25 29 31 32 30 30 28 24 24 24 25 24 24 24 25 27 31 27 26 27 26 29 27 30 31 31 27 33 31 30 28 27 28 26 36 32 26 32 27 27 23 24 23 19 18 17 17 18 18 17 14 12 11 11 12 13 12 17 17 24 22 20 26 30 26 25 27 51 52 52 52 55 56 56 55 59 61 61 62 62 63
42 43 41 43 37 37 33 30 31 30 32 37 36 28 25 25 25 25 26 26 26 26 26 26 26 29 30 29 28 28 31 27 28 33 31 29 30 29 30 33 32 28 28 28 28 33 25 24 27 22 21 20 19 19 19 18 17 16 15 18 15 13 12 12 12 13 14 22 25 22 26 28 27 42 50 51 52 52 52 58 57 52 54 56 58 60 61 62
43 42 42 45 44 38 31 31 31 30 29 35 33 30 30 28 27 27 27 25 28 25 26 27 27 26 31 32 33 30 33 32 32 30 34 31 29 33 29 30 27 30 27 29 28 34 23 27 26 27 25 23 21 22 19 18 18 17 17 16 15 14 13 11 10 12 22 20 22 24 30 33 39 48 50 52 51 53 53 55 56 53 54 55 54 54 56 58
47 48 47 43 40 37 37 33 32 32 30 31 30 33 33 30 32 32 32 28 24 29 31 28 28 30 30 33 34 35 37 34 34 32 30 30 26 31 25 29 26 26 34 31 30 35 29 28 29 27 23 22 22 21 21 23 22 19 18 18 16 14 13 11 13 13 15 17 19 16 27 42 45 49 51 50 48 51 53 54 55 55 54 56 56 55 55 56
48 49 49 44 39 46 32 33 34 32 29 32 37 34 35 30 33 35 31 30 30 33 31 29 32 31 33 32 33 34 35 32 31 30 29 27 26 26 26 25 25 26 32 31 34 33 32 29 24 25 22 23 23 23 24 23 20 17 19 17 19 16 16 16 17 28 37 38 32 29 40 44 48 52 49 50 48 50 51 54 56 55 55 53 55 57 57 57